Home > Weather > Belém > Past weeks

Flag for Brazil Past Weather in Belém, Pará, Brazil — Yesterday and Last 2 Weeks

Now
90 °F

Partly sunny.


Feels Like: 98 °F
Forecast: 76 / 90 °F
Wind: 6 mph from Southeast

Location: Belem Aeroporto

Current Time: May 28, 2016 at 3:23:55 PM

Latest Report: May 28, 2016 at 3:00 PM


Visibility: N/A

Pressure: 29.86 "Hg

Humidity: 59%

Dew Point: 73 °F

Location of BelémLocation

Past Weather in Belém — Graph

°F

Belém Temperature Yesterday

Maximum temperature yesterday: 90 °F (at 2:00 PM)
Minimum temperature yesterday: 75 °F (at 12:00 AM)
Average temperature yesterday: 81 °F

High & Low Weather Summary for the Past Weeks

 TemperatureHumidityPressure
High91 °F (May 15, 1:00 PM)100% (May 26, 9:00 PM)30.01 "Hg (May 26, 9:00 PM)
Low73 °F (May 24, 4:00 PM)52% (May 15, 1:00 PM)29.80 "Hg (May 17, 4:00 PM)
Average81 °F81%29.91 "Hg
* Reported May 13 2:00 PM — May 28 2:00 PM, Belém, Weather by CustomWeather, © 2016

Note: Actual official high and low records may vary slightly from our data, if they occured in-between our weather recording intervals... More about our weather records

Advertising

Belém Weather History for the Previous 24 Hours

Scroll right to see more
 ConditionsComfort  
Time TempWeatherWind HumidityBarometerVisibility
2:00 PM
Sat, May 28
90 °FPartly sunny.9 mph59%29.89 "HgN/A
1:00 PM90 °FPartly sunny.9 mph59%29.92 "HgN/A
12:00 PM88 °FPartly sunny.7 mph62%29.95 "HgN/A
11:00 AM88 °FPartly sunny.9 mph62%29.98 "HgN/A
10:00 AM86 °FPartly sunny.12 mph70%29.98 "HgN/A
9:00 AM84 °FScattered clouds.8 mph74%29.98 "HgN/A
8:00 AM81 °FSunny.7 mph84%29.95 "Hg10 mi
7:00 AM77 °FSunny.3 mph89%29.92 "Hg10 mi
6:00 AM77 °FClear.2 mph89%29.92 "Hg10 mi
5:00 AM77 °FClear.5 mph89%29.89 "Hg10 mi
4:00 AM77 °FClear.5 mph89%29.86 "Hg10 mi
3:00 AM77 °FClear.5 mph89%29.89 "Hg10 mi
2:00 AM77 °FClear.2 mph89%29.89 "Hg10 mi
1:00 AM77 °FClear.1 mph94%29.92 "Hg10 mi
12:00 AM77 °FClear.No wind94%29.95 "Hg10 mi
11:00 PM
Fri, May 27
77 °FClear.No wind94%29.95 "Hg10 mi
10:00 PM79 °FPassing clouds.3 mph89%29.95 "HgN/A
9:00 PM79 °FPartly cloudy.2 mph89%29.95 "HgN/A
8:00 PM77 °FThundershowers. Passing clouds.7 mph89%29.92 "HgN/A
7:00 PM81 °FPassing clouds.7 mph84%29.89 "HgN/A
6:00 PM84 °FBroken clouds.7 mph70%29.86 "HgN/A
5:00 PM88 °FScattered clouds.6 mph66%29.83 "HgN/A
4:00 PM90 °FScattered clouds.9 mph59%29.80 "HgN/A
3:00 PM90 °FPartly sunny.9 mph59%29.83 "HgN/A
Weather by CustomWeather, © 2016

See weather overviewHow to use our weather pages